Flag for U.S.A. Weather past 2 weeks in Norfolk, Virginia, U.S.A.

Now
66 °F

Passing clouds.


Feels Like: 66 °F
Forecast: 65 / 72 °F
Wind: 16 mph from Northeast

Location: Norfolk Naval Air Station

Current Time: Sep 24, 2014 at 1:16:50 AM

Latest Report: Sep 24, 2014 at 12:59 AM


Visibility: 10 mi

Pressure: 30.32 "Hg

Humidity: 73%

Dew point: 57 °F

Location of NorfolkLocation

Historic Weather in Norfolk — Graph

°F

Norfolk temperature yesterday

Maximum temperature yesterday: 71 °F (at 12:59 AM)
Minimum temperature yesterday: 63 °F (at 5:59 AM)
Average temperature yesterday: 65 °F

Past Weeks' High & Low Weather Summary

 TemperatureHumidityPressure
High87 °F (Sep 11, 1:59 PM)97% (Sep 9, 3:59 AM)30.34 "Hg (Sep 9, 3:59 AM)
Low63 °F (Sep 18, 3:59 AM)40% (Sep 22, 10:59 AM)29.72 "Hg (Sep 21, 3:59 PM)
Average73 °F70%30.08 "Hg
* Reported Sep 8 11:59 PM — Sep 23 11:59 PM, Norfolk, Weather by CustomWeather, © 2014

Note: Actual official high and low records may vary slightly from our data, if they occured in-between our weather recording intervals... More about our weather records

Advertising

Norfolk weather history for previous 24 hours

 ConditionsComfort  
Time TempWeatherWind HumidityBarometerVisibility
11:59 PM
Sep 23
66 °FPartly cloudy.17 mph73%30.32 "Hg10 mi
10:59 PM65 °FPartly cloudy.18 mph70%30.33 "Hg10 mi
9:59 PM65 °FPartly cloudy.18 mph63%30.32 "Hg10 mi
8:59 PM65 °FPassing clouds.16 mph63%30.32 "Hg10 mi
7:59 PM65 °FPartly sunny.16 mph61%30.32 "Hg10 mi
6:59 PM64 °FBroken clouds.12 mph63%30.31 "Hg10 mi
5:59 PM65 °FBroken clouds.14 mph61%30.30 "Hg10 mi
4:59 PM65 °FPartly sunny.14 mph61%30.31 "Hg10 mi
3:59 PM65 °FPartly sunny.10 mph61%30.31 "Hg10 mi
2:59 PM65 °FCloudy.14 mph63%30.32 "Hg10 mi
1:59 PM65 °FCloudy.15 mph61%30.32 "Hg10 mi
12:59 PM66 °FMore clouds than sun.16 mph61%30.34 "Hg10 mi
11:59 AM66 °FMore clouds than sun.14 mph61%30.33 "Hg10 mi
10:59 AM66 °FMore clouds than sun.16 mph61%30.32 "Hg10 mi
9:59 AM66 °FMore clouds than sun.17 mph59%30.31 "Hg10 mi
8:59 AM65 °FBroken clouds.13 mph56%30.30 "Hg10 mi
7:59 AM64 °FBroken clouds.16 mph54%30.28 "Hg10 mi
6:59 AM63 °FPassing clouds.16 mph52%30.26 "Hg10 mi
5:59 AM63 °FOvercast.21 mph54%30.24 "Hg10 mi
4:59 AM64 °FMostly cloudy.17 mph54%30.24 "Hg10 mi
3:59 AM65 °FPassing clouds.21 mph59%30.22 "Hg10 mi
2:59 AM67 °FPassing clouds.18 mph59%30.20 "Hg10 mi
1:59 AM68 °FPassing clouds.18 mph61%30.19 "Hg10 mi
Weather by CustomWeather, © 2014

See weather overviewHow to use our weather pages